Location: Newark
(43.0000°N, 1.6781°W)
Time: 10:34:42
(UTC+00:00)

Explorer 7 - Pass Details

Date: 21 April 2021
Orbit: 484 x 677 km, 50.3° (Epoch: 07 May)

Event Time Altitude Azimuth Distance (km) Brightness Sun altitude
Rises 22:17:33 0° 287° (WNW) 2,708 11.0 -29.6°
Reaches altitude 10° 22:19:56 10° 298° (WNW) 1,849 10.2 -29.8°
Enters shadow 22:23:31 30° 356° (N) 1,047 8.6 -30.1°
Maximum altitude 22:23:42 31° 1° (N) 1,046 - -30.1°
Drops below altitude 10° 22:27:41 10° 64° (ENE) 1,960 - -30.5°
Sets 22:30:17 0° 75° (ENE) 2,901 - -30.7°
